TimePST,TemperatureF,Dew PointF,Humidity,Sea Level PressureIn,VisibilityMPH,Wind Direction,Wind SpeedMPH,Gust SpeedMPH,PrecipitationIn,Events,Conditions,WindDirDegrees,DateUTC
12:56 AM,44.1,41.0,89,29.92,9.0,Calm,Calm,-,0.02,Rain,Light Rain,0,2012-11-17 08:56:00
1:56 AM,44.1,41.0,89,29.90,8.0,Calm,Calm,-,0.03,Rain,Light Rain,0,2012-11-17 09:56:00
2:56 AM,43.0,41.0,93,29.89,6.0,Variable,3.5,-,0.08,Rain,Rain,0,2012-11-17 10:56:00
3:15 AM,44.6,41.0,87,29.84,7.0,SE,4.6,-,0.02,Rain,Light Rain,140,2012-11-17 11:15:00
3:56 AM,43.0,39.9,89,29.87,5.0,Calm,Calm,-,0.13,Rain,Rain,0,2012-11-17 11:56:00
4:29 AM,42.8,39.2,87,29.82,6.0,Calm,Calm,-,0.09,Rain,Rain,0,2012-11-17 12:29:00
4:53 AM,41.0,37.4,87,29.82,6.0,Calm,Calm,-,0.14,Rain,Rain,0,2012-11-17 12:53:00
4:56 AM,41.0,37.9,89,29.88,6.0,Calm,Calm,-,0.15,Rain,Rain,0,2012-11-17 12:56:00
5:56 AM,41.0,36.0,82,29.87,5.0,East,6.9,-,0.23,Rain,Rain,100,2012-11-17 13:56:00
6:56 AM,39.9,37.9,93,29.85,4.0,Calm,Calm,-,0.23,Rain,Light Rain,0,2012-11-17 14:56:00
7:17 AM,39.2,37.4,93,29.79,6.0,Calm,Calm,-,0.02,Rain,Light Rain,0,2012-11-17 15:17:00
7:31 AM,39.2,37.4,93,29.79,5.0,Calm,Calm,-,0.03,Rain,Light Rain,0,2012-11-17 15:31:00
7:53 AM,39.2,37.4,93,29.78,6.0,Calm,Calm,-,0.03,Rain,Light Rain,0,2012-11-17 15:53:00
7:56 AM,39.0,37.0,93,29.85,5.0,SSW,3.5,-,0.03,Rain,Light Rain,210,2012-11-17 15:56:00
8:34 AM,39.2,37.4,93,29.78,5.0,Calm,Calm,-,0.01,Rain,Light Rain,0,2012-11-17 16:34:00
8:41 AM,39.2,37.4,93,29.78,7.0,Calm,Calm,-,0.02,Rain,Light Rain,0,2012-11-17 16:41:00
8:56 AM,41.0,37.9,89,29.84,5.0,Calm,Calm,-,0.02,,Overcast,0,2012-11-17 16:56:00
9:56 AM,46.0,41.0,83,29.83,10.0,ESE,3.5,-,0.01,,Overcast,110,2012-11-17 17:56:00
10:56 AM,46.0,42.1,86,29.82,4.0,ESE,5.8,-,0.01,Rain,Light Rain,110,2012-11-17 18:56:00
11:56 AM,46.9,42.1,83,29.79,7.0,Variable,4.6,-,0.01,Rain,Light Rain,0,2012-11-17 19:56:00
12:19 PM,46.4,42.8,87,29.74,9.0,Variable,5.8,-,0.02,Rain,Light Rain,0,2012-11-17 20:19:00
12:56 PM,46.9,43.0,86,29.77,10.0,East,5.8,-,0.02,,Overcast,100,2012-11-17 20:56:00
1:56 PM,46.9,43.0,86,29.75,8.0,Variable,4.6,-,0.01,Rain,Light Rain,0,2012-11-17 21:56:00
2:18 PM,46.4,42.8,87,29.70,10.0,ESE,5.8,-,0.00,Rain,Light Rain,120,2012-11-17 22:18:00
2:56 PM,46.9,43.0,86,29.73,10.0,Variable,5.8,-,0.01,Rain,Light Rain,0,2012-11-17 22:56:00
3:49 PM,46.4,42.8,87,29.71,2.5,Calm,Calm,-,0.07,Rain,Rain,0,2012-11-17 23:49:00
3:56 PM,46.0,44.1,93,29.77,2.0,Calm,Calm,-,0.11,Rain,Rain,0,2012-11-17 23:56:00
4:10 PM,46.4,42.8,87,29.72,5.0,East,4.6,-,0.04,Rain,Light Rain,90,2012-11-18 00:10:00
4:56 PM,45.0,39.9,82,29.78,10.0,Calm,Calm,-,0.04,,Overcast,0,2012-11-18 00:56:00
5:56 PM,39.9,35.1,83,29.83,10.0,Variable,5.8,-,0.02,Rain,Light Rain,0,2012-11-18 01:56:00
6:56 PM,39.0,35.1,86,29.86,10.0,Calm,Calm,-,0.00,,Overcast,0,2012-11-18 02:56:00
7:56 PM,37.9,34.0,86,29.90,10.0,Variable,4.6,-,N/A,,Scattered Clouds,0,2012-11-18 03:56:00
8:56 PM,36.0,32.0,86,29.94,10.0,Calm,Calm,-,N/A,,Clear,0,2012-11-18 04:56:00
9:35 PM,35.6,32.0,87,29.88,10.0,Calm,Calm,-,N/A,,Partly Cloudy,0,2012-11-18 05:35:00
9:56 PM,34.0,30.0,85,29.97,10.0,Calm,Calm,-,N/A,,Partly Cloudy,0,2012-11-18 05:56:00
10:56 PM,34.0,30.0,85,29.99,10.0,Calm,Calm,-,N/A,,Clear,0,2012-11-18 06:56:00
11:56 PM,32.0,28.9,88,30.00,3.0,Calm,Calm,-,N/A,,Clear,0,2012-11-18 07:56:00